sat.trackr.live / text

‹ back to catalog

TRITON-1

NORAD 39427 · 2013-066M

PAYLOAD ACTIVE UNKNOWN

§ Identity

Operator
Country
UK
Launch date
2013-11-21
Launch site
DLS
Launch vehicle
Mass (kg)
RCS (m²)
0.12

Purposes: tech_demo

External: N2YO · Heavens-Above · Gunter

§ Orbital elements

Epoch: 2026-09-20T03:58:50.877696Z

Period
97.16 min
Inclination
97.8144°
Eccentricity
0.0087864
Mean motion
14.82061504 rev/d
Perigee alt
561.3 km
Apogee alt
684.3 km
Semi-major
7,001.0 km
B*
1.9037e-4
RAAN
170.7800°
Arg perigee
285.1022°
Mean anomaly
74.0484°
Rev number
68,815

§ Raw data

TRITON-11 39427U 13066M   26263.16586664  .00001558  00000+0  19037-3 0  99932 39427  97.8144 170.7800 0087864 285.1022  74.0484 14.82061504688152

JSON: /api/v1/satellites/39427 · /tle

For live sub-satellite position, see the globe view (requires WebGL).

§ Visibility from observer

Set your observer location to see the next 7 days of passes ≥ 10°. The values pass through the URL so the page stays shareable.

No JS? Fill the form by hand. The geolocation button needs JavaScript.

§ Radio — SatNOGS DB

ModeDescriptionDownlinkUplink
CW Mode 1200bps RC-BPSK CW 145.818 MHz
FM Mode S Beacon 2.408 GHz
AFSK Primary TLM - AFSK1k2 145.815 MHz
CW Primary TLM - CW 145.815 MHz
AFSK Secondary TLM - AFSK1k2 145.860 MHz
CW Secondary TLM - CW 145.860 MHz

6 transmitters · refreshed weekly from db.satnogs.org